Time,TemperatureF,DewpointF,PressureIn,WindDirection,WindDirectionDegrees,WindSpeedMPH,WindSpeedGustMPH,Humidity,HourlyPrecipIn,Conditions,Clouds,dailyrainin,SoftwareType,DateUTC
2013-07-02 00:22:00,59.0,-99.9,29.86,SSW,192,18.0,20.0,-999,-99.99,,,-99.99,,2013-07-02 07:22:00,
2013-07-02 00:53:00,58.0,-99.9,29.86,SW,220,17.0,22.0,-999,-99.99,,,-99.99,,2013-07-02 07:53:00,
2013-07-02 01:22:00,58.0,-99.9,29.85,SSW,213,13.0,20.0,-999,-99.99,,,-99.99,,2013-07-02 08:22:00,
2013-07-02 01:53:00,58.0,-99.9,29.85,SSW,207,11.0,19.0,-999,-99.99,,,-99.99,,2013-07-02 08:53:00,
2013-07-02 02:23:00,58.0,-99.9,29.84,SW,222,15.0,19.0,-999,-99.99,,,-99.99,,2013-07-02 09:23:00,
2013-07-02 02:43:00,58.0,-99.9,29.84,SW,221,15.0,21.0,-999,-99.99,,,-99.99,,2013-07-02 09:43:00,
2013-07-02 02:52:00,58.0,-99.9,29.84,SW,223,15.0,20.0,-999,-99.99,,,-99.99,,2013-07-02 09:52:00,
2013-07-02 03:22:00,58.0,-99.9,29.83,SW,218,13.0,21.0,-999,-99.99,,,-99.99,,2013-07-02 10:22:00,
2013-07-02 03:33:00,58.0,-99.9,29.83,SSW,209,14.0,19.0,-999,-99.99,,,-99.99,,2013-07-02 10:33:00,
2013-07-02 03:52:00,58.0,-99.9,29.84,SW,224,15.0,23.0,-999,-99.99,,,-99.99,,2013-07-02 10:52:00,
2013-07-02 04:22:00,58.0,-99.9,29.85,SW,217,12.0,20.0,-999,-99.99,,,-99.99,,2013-07-02 11:22:00,
2013-07-02 04:42:00,58.0,-99.9,29.85,SSW,210,13.0,19.0,-999,-99.99,,,-99.99,,2013-07-02 11:42:00,
2013-07-02 04:52:00,58.0,-99.9,29.85,SSW,197,15.0,19.0,-999,-99.99,,,-99.99,,2013-07-02 11:52:00,
2013-07-02 05:23:00,58.0,-99.9,29.85,SW,217,13.0,21.0,-999,-99.99,,,-99.99,,2013-07-02 12:23:00,
2013-07-02 05:33:00,58.0,-99.9,29.85,SSW,203,14.0,19.0,-999,-99.99,,,-99.99,,2013-07-02 12:33:00,
2013-07-02 05:52:00,59.0,-99.9,29.85,SSW,213,11.0,19.0,-999,-99.99,,,-99.99,,2013-07-02 12:52:00,
2013-07-02 06:34:00,59.0,-99.9,29.85,SW,220,14.0,21.0,-999,-99.99,,,-99.99,,2013-07-02 13:34:00,
2013-07-02 06:52:00,59.0,-99.9,29.85,SSW,197,13.0,17.0,-999,-99.99,,,-99.99,,2013-07-02 13:52:00,
2013-07-02 07:02:00,59.0,-99.9,29.86,SSW,193,14.0,18.0,-999,-99.99,,,-99.99,,2013-07-02 14:02:00,
2013-07-02 07:53:00,60.0,-99.9,29.87,SW,223,19.0,23.0,-999,-99.99,,,-99.99,,2013-07-02 14:53:00,
2013-07-02 08:44:00,60.0,-99.9,29.89,SSW,212,15.0,23.0,-999,-99.99,,,-99.99,,2013-07-02 15:44:00,
2013-07-02 09:01:00,59.0,-99.9,29.90,SSW,203,16.0,22.0,-999,-99.99,,,-99.99,,2013-07-02 16:01:00,
2013-07-02 09:33:00,59.0,-99.9,29.91,SSW,209,15.0,22.0,-999,-99.99,,,-99.99,,2013-07-02 16:33:00,
2013-07-02 10:02:00,58.0,-99.9,29.91,SW,218,14.0,20.0,-999,-99.99,,,-99.99,,2013-07-02 17:02:00,
2013-07-02 11:53:00,61.0,-99.9,29.91,SW,221,11.0,16.0,-999,-99.99,,,-99.99,,2013-07-02 18:53:00,
2013-07-02 16:44:00,63.0,-99.9,29.91,SW,219,15.0,21.0,-999,-99.99,,,-99.99,,2013-07-02 23:44:00,
2013-07-02 17:44:00,61.0,-99.9,29.90,SSW,193,19.0,23.0,-999,-99.99,,,-99.99,,2013-07-03 00:44:00,
2013-07-02 19:47:00,60.0,-99.9,29.89,South,181,20.0,23.0,-999,-99.99,,,-99.99,,2013-07-03 02:47:00,
2013-07-02 20:49:00,60.0,-99.9,29.92,SSW,206,12.0,18.0,-999,-99.99,,,-99.99,,2013-07-03 03:49:00,
2013-07-02 21:22:00,60.0,-99.9,29.92,SSW,198,13.0,17.0,-999,-99.99,,,-99.99,,2013-07-03 04:22:00,
2013-07-02 21:34:00,60.0,-99.9,29.92,SSW,204,13.0,19.0,-999,-99.99,,,-99.99,,2013-07-03 04:34:00,
2013-07-02 21:52:00,60.0,-99.9,29.92,SW,214,12.0,19.0,-999,-99.99,,,-99.99,,2013-07-03 04:52:00,
2013-07-02 22:48:00,59.0,-99.9,29.92,SW,218,13.0,19.0,-999,-99.99,,,-99.99,,2013-07-03 05:48:00,
2013-07-02 23:58:00,60.0,-99.9,29.94,SW,224,8.0,11.0,-999,-99.99,,,-99.99,,2013-07-03 06:58:00,